Arklow Wind — EIKZ — position and weather

sailwx.info

Track history (hours):
 
Tides and Currents Weather Stations Pressure Air Temp Water Temp Dewpoint Dewpoint Depression Visibility Wind Speed Wind Dir Waves Ship Positions

Arklow Wind

Last reported at 2014-Oct-21 19:24 UTC. Time now 2014-Oct-22 22:28 UTC.
Position N 50°07' W 003°34'.

Length 136 m; draft 7.6 m.

Type: Ship (hazmat cat A). MMSI: 250506000.

Date/timePositionNaut miles runAvg speedWind from/ knotsBaromVisibWave heightAir tempDewpointWater temp
2014-Oct-21 19:24N 50°07' W 003°34'910.2
2014-Oct-21 18:34N 50°12' W 003°23'10 9.2
2014-Oct-21 17:29N 50°16' W 003°09'9 9.1
2014-Oct-21 16:31N 50°19' W 002°56'8 8.7
2014-Oct-21 15:33N 50°20' W 002°43'20 9.4
2014-Oct-21 13:23N 50°21' W 002°11'2910.1
2014-Oct-21 10:31N 50°22' W 001°26'8 8.1
2014-Oct-21 09:32N 50°23' W 001°14'6 6.1
2014-Oct-21 08:32N 50°24' W 001°04'92 8.2
2014-Oct-20 21:19N 50°56' E 001°12'7 9.5
2014-Oct-20 20:33N 51°00' E 001°21'1010.3
2014-Oct-20 19:33N 51°07' E 001°33'1211.9
2014-Oct-20 18:34N 51°15' E 001°46'1312.8
2014-Oct-20 17:33N 51°26' E 001°59'4911.4
2014-Oct-20 13:17N 52°03' E 002°49'117 9.6
2014-Oct-20 01:05N 53°33' E 004°55'4 8.1
2014-Oct-20 00:33N 53°33' E 005°02'9 9.4
2014-Oct-19 23:33N 53°37' E 005°17'1010.2
2014-Oct-19 22:33N 53°40' E 005°33'1110.6
2014-Oct-19 21:33N 53°43' E 005°50'6210.4
2014-Oct-19 15:33N 54°00' E 007°31'1110.7
2014-Oct-19 14:33N 54°01' E 007°49'1111.4
2014-Oct-19 13:33N 54°01' E 008°09'1413.7
2014-Oct-19 12:33N 53°58' E 008°32'1413.9
2014-Oct-19 11:34N 53°50' E 008°51'1111.0
2014-Oct-19 10:33N 53°54' E 009°09'1 1.1
2014-Oct-19 09:33N 53°54' E 009°10'8 7.6
2014-Oct-19 08:33N 54°01' E 009°18'11 5.1
2014-Oct-19 06:30N 54°10' E 009°26'5 5.5
2014-Oct-19 05:33N 54°12' E 009°34'6 5.7
2014-Oct-19 04:29N 54°17' E 009°39'3 3.7
2014-Oct-19 03:33N 54°20' E 009°43'4 4.0
2014-Oct-19 02:33N 54°22' E 009°49'6 5.5
2014-Oct-19 01:33N 54°21' E 009°58'6 5.8
2014-Oct-19 00:33N 54°22' E 010°08'1 0.9
2014-Oct-18 23:33N 54°22' E 010°10'2 1.8
2014-Oct-18 22:33N 54°23' E 010°12'1110.6
2014-Oct-18 21:33N 54°32' E 010°23'1111.4
2014-Oct-18 20:33N 54°35' E 010°41'4012.2
2014-Oct-18 17:14N 54°27' E 011°49'912.5
2014-Oct-18 16:32N 54°27' E 012°04'9611.6
2014-Oct-18 08:15N 55°19' E 014°24'2511.9
2014-Oct-18 06:11N 55°34' E 014°58'1012.1
2014-Oct-18 05:23N 55°39' E 015°13'1212.3
2014-Oct-18 04:26N 55°44' E 015°31'1312.4
2014-Oct-18 03:24N 55°50' E 015°51'1112.4
2014-Oct-18 02:33N 55°56' E 016°07'1312.7
2014-Oct-18 01:33N 56°02' E 016°27'  
2014-Oct-14 11:31N 55°31' E 015°25'1111.6
2014-Oct-14 10:33N 55°27' E 015°06'1211.7
2014-Oct-14 09:33N 55°24' E 014°47'1111.1
2014-Oct-14 08:33N 55°17' E 014°31'1111.2
2014-Oct-14 07:33N 55°09' E 014°18'1211.8
2014-Oct-14 06:33N 55°00' E 014°04'6212.4
2014-Oct-14 01:33N 54°38' E 012°24'1212.1
2014-Oct-14 00:33N 54°27' E 012°14'1312.9
2014-Oct-13 23:33N 54°25' E 011°52'3912.7
2014-Oct-13 20:30N 54°34' E 010°47'1313.3
2014-Oct-13 19:33N 54°31' E 010°26'1111.2
2014-Oct-13 18:33N 54°23' E 010°12'4 3.7
2014-Oct-13 17:33N 54°22' E 010°06'8 7.5
2014-Oct-13 16:33N 54°21' E 009°53'7 7.3
2014-Oct-13 15:33N 54°18' E 009°42'8 7.3
2014-Oct-13 14:31N 54°12' E 009°34'21 7.1
2014-Oct-13 11:33N 53°55' E 009°12'3 2.8
2014-Oct-13 10:33N 53°53' E 009°08'7 7.0
2014-Oct-13 09:34N 53°51' E 008°57'8 8.4
2014-Oct-13 08:33N 53°52' E 008°43'9 9.1
2014-Oct-13 07:33N 53°58' E 008°31'9 9.3
2014-Oct-13 06:33N 54°00' E 008°16'1010.3
2014-Oct-13 05:33N 53°58' E 007°58'9 9.3
2014-Oct-13 04:33N 53°56' E 007°43'3510.3
2014-Oct-13 01:11N 53°48' E 006°46'1211.0
2014-Oct-13 00:06N 53°46' E 006°26'712.1
2014-Oct-12 23:33N 53°44' E 006°15'1313.3
2014-Oct-12 22:33N 53°40' E 005°54'1313.4
2014-Oct-12 21:33N 53°35' E 005°33'1414.0
2014-Oct-12 20:34N 53°31' E 005°10'1414.2
2014-Oct-12 19:33N 53°26' E 004°48'1414.5
2014-Oct-12 18:34N 53°13' E 004°35'1514.9
2014-Oct-12 17:34N 53°01' E 004°22'1414.2
2014-Oct-12 16:33N 52°48' E 004°12'1413.8
2014-Oct-12 15:33N 52°38' E 003°55'1613.2
2014-Oct-12 14:22N 52°27' E 003°36'1112.6
2014-Oct-12 13:28N 52°20' E 003°23'1412.4
2014-Oct-12 12:21N 52°09' E 003°09'1411.5
2014-Oct-12 11:08N 51°55' E 003°04'2011.6
2014-Oct-12 09:27N 51°38' E 003°20'1314.4
2014-Oct-12 08:33N 51°27' E 003°31'1414.1
2014-Oct-12 07:33N 51°21' E 003°51'1212.2
2014-Oct-12 06:33N 51°23' E 004°10'5 5.3
2014-Oct-12 05:33N 51°21' E 004°17'4 3.7
2014-Oct-12 04:33N 51°17' E 004°20'2 1.7
2014-Oct-12 03:31N 51°16' E 004°22'0 0.0
2014-Oct-12 02:31N 51°16' E 004°22'0 0.0
2014-Oct-12 01:28N 51°16' E 004°22'0 0.0
2014-Oct-12 00:31N 51°16' E 004°22'0 0.0
2014-Oct-11 23:31N 51°16' E 004°22'0 0.0
2014-Oct-11 22:31N 51°16' E 004°22'0 0.0
2014-Oct-11 21:31N 51°16' E 004°22'0 0.0
2014-Oct-11 20:31N 51°16' E 004°22'0 0.0
2014-Oct-11 19:31N 51°16' E 004°22'  
Track history (hours):
 
Tides and Currents Weather Stations Pressure Air Temp Water Temp Dewpoint Dewpoint Depression Visibility Wind Speed Wind Dir Waves Ship Positions

Arklow Wind

Last reported at 2014-Oct-21 19:24 UTC. Time now 2014-Oct-22 22:28 UTC.
Position N 50°07' W 003°34'.

Length 136 m; draft 7.6 m.

Type: Ship (hazmat cat A). MMSI: 250506000.

Date/timePositionNaut miles runAvg speedWind from/ knotsBaromVisibWave heightAir tempDewpointWater temp
2014-Oct-21 19:24N 50°07' W 003°34'910.2
2014-Oct-21 18:34N 50°12' W 003°23'10 9.2
2014-Oct-21 17:29N 50°16' W 003°09'9 9.1
2014-Oct-21 16:31N 50°19' W 002°56'8 8.7
2014-Oct-21 15:33N 50°20' W 002°43'20 9.4
2014-Oct-21 13:23N 50°21' W 002°11'2910.1
2014-Oct-21 10:31N 50°22' W 001°26'8 8.1
2014-Oct-21 09:32N 50°23' W 001°14'6 6.1
2014-Oct-21 08:32N 50°24' W 001°04'92 8.2
2014-Oct-20 21:19N 50°56' E 001°12'7 9.5
2014-Oct-20 20:33N 51°00' E 001°21'1010.3
2014-Oct-20 19:33N 51°07' E 001°33'1211.9
2014-Oct-20 18:34N 51°15' E 001°46'1312.8
2014-Oct-20 17:33N 51°26' E 001°59'4911.4
2014-Oct-20 13:17N 52°03' E 002°49'117 9.6
2014-Oct-20 01:05N 53°33' E 004°55'4 8.1
2014-Oct-20 00:33N 53°33' E 005°02'9 9.4
2014-Oct-19 23:33N 53°37' E 005°17'1010.2
2014-Oct-19 22:33N 53°40' E 005°33'1110.6
2014-Oct-19 21:33N 53°43' E 005°50'6210.4
2014-Oct-19 15:33N 54°00' E 007°31'1110.7
2014-Oct-19 14:33N 54°01' E 007°49'1111.4
2014-Oct-19 13:33N 54°01' E 008°09'1413.7
2014-Oct-19 12:33N 53°58' E 008°32'1413.9
2014-Oct-19 11:34N 53°50' E 008°51'1111.0
2014-Oct-19 10:33N 53°54' E 009°09'1 1.1
2014-Oct-19 09:33N 53°54' E 009°10'8 7.6
2014-Oct-19 08:33N 54°01' E 009°18'11 5.1
2014-Oct-19 06:30N 54°10' E 009°26'5 5.5
2014-Oct-19 05:33N 54°12' E 009°34'6 5.7
2014-Oct-19 04:29N 54°17' E 009°39'3 3.7
2014-Oct-19 03:33N 54°20' E 009°43'4 4.0
2014-Oct-19 02:33N 54°22' E 009°49'6 5.5
2014-Oct-19 01:33N 54°21' E 009°58'6 5.8
2014-Oct-19 00:33N 54°22' E 010°08'1 0.9
2014-Oct-18 23:33N 54°22' E 010°10'2 1.8
2014-Oct-18 22:33N 54°23' E 010°12'1110.6
2014-Oct-18 21:33N 54°32' E 010°23'1111.4
2014-Oct-18 20:33N 54°35' E 010°41'4012.2
2014-Oct-18 17:14N 54°27' E 011°49'912.5
2014-Oct-18 16:32N 54°27' E 012°04'9611.6
2014-Oct-18 08:15N 55°19' E 014°24'2511.9
2014-Oct-18 06:11N 55°34' E 014°58'1012.1
2014-Oct-18 05:23N 55°39' E 015°13'1212.3
2014-Oct-18 04:26N 55°44' E 015°31'1312.4
2014-Oct-18 03:24N 55°50' E 015°51'1112.4
2014-Oct-18 02:33N 55°56' E 016°07'1312.7
2014-Oct-18 01:33N 56°02' E 016°27'  
2014-Oct-14 11:31N 55°31' E 015°25'1111.6
2014-Oct-14 10:33N 55°27' E 015°06'1211.7
2014-Oct-14 09:33N 55°24' E 014°47'1111.1
2014-Oct-14 08:33N 55°17' E 014°31'1111.2
2014-Oct-14 07:33N 55°09' E 014°18'1211.8
2014-Oct-14 06:33N 55°00' E 014°04'6212.4
2014-Oct-14 01:33N 54°38' E 012°24'1212.1
2014-Oct-14 00:33N 54°27' E 012°14'1312.9
2014-Oct-13 23:33N 54°25' E 011°52'3912.7
2014-Oct-13 20:30N 54°34' E 010°47'1313.3
2014-Oct-13 19:33N 54°31' E 010°26'1111.2
2014-Oct-13 18:33N 54°23' E 010°12'4 3.7
2014-Oct-13 17:33N 54°22' E 010°06'8 7.5
2014-Oct-13 16:33N 54°21' E 009°53'7 7.3
2014-Oct-13 15:33N 54°18' E 009°42'8 7.3
2014-Oct-13 14:31N 54°12' E 009°34'21 7.1
2014-Oct-13 11:33N 53°55' E 009°12'3 2.8
2014-Oct-13 10:33N 53°53' E 009°08'7 7.0
2014-Oct-13 09:34N 53°51' E 008°57'8 8.4
2014-Oct-13 08:33N 53°52' E 008°43'9 9.1
2014-Oct-13 07:33N 53°58' E 008°31'9 9.3
2014-Oct-13 06:33N 54°00' E 008°16'1010.3
2014-Oct-13 05:33N 53°58' E 007°58'9 9.3
2014-Oct-13 04:33N 53°56' E 007°43'3510.3
2014-Oct-13 01:11N 53°48' E 006°46'1211.0
2014-Oct-13 00:06N 53°46' E 006°26'712.1
2014-Oct-12 23:33N 53°44' E 006°15'1313.3
2014-Oct-12 22:33N 53°40' E 005°54'1313.4
2014-Oct-12 21:33N 53°35' E 005°33'1414.0
2014-Oct-12 20:34N 53°31' E 005°10'1414.2
2014-Oct-12 19:33N 53°26' E 004°48'1414.5
2014-Oct-12 18:34N 53°13' E 004°35'1514.9
2014-Oct-12 17:34N 53°01' E 004°22'1414.2
2014-Oct-12 16:33N 52°48' E 004°12'1413.8
2014-Oct-12 15:33N 52°38' E 003°55'1613.2
2014-Oct-12 14:22N 52°27' E 003°36'1112.6
2014-Oct-12 13:28N 52°20' E 003°23'1412.4
2014-Oct-12 12:21N 52°09' E 003°09'1411.5
2014-Oct-12 11:08N 51°55' E 003°04'2011.6
2014-Oct-12 09:27N 51°38' E 003°20'1314.4
2014-Oct-12 08:33N 51°27' E 003°31'1414.1
2014-Oct-12 07:33N 51°21' E 003°51'1212.2
2014-Oct-12 06:33N 51°23' E 004°10'5 5.3
2014-Oct-12 05:33N 51°21' E 004°17'4 3.7
2014-Oct-12 04:33N 51°17' E 004°20'2 1.7
2014-Oct-12 03:31N 51°16' E 004°22'0 0.0
2014-Oct-12 02:31N 51°16' E 004°22'0 0.0
2014-Oct-12 01:28N 51°16' E 004°22'0 0.0
2014-Oct-12 00:31N 51°16' E 004°22'0 0.0
2014-Oct-11 23:31N 51°16' E 004°22'0 0.0
2014-Oct-11 22:31N 51°16' E 004°22'0 0.0
2014-Oct-11 21:31N 51°16' E 004°22'0 0.0
2014-Oct-11 20:31N 51°16' E 004°22'0 0.0
2014-Oct-11 19:31N 51°16' E 004°22'  

Dump ship's entire track history